TIME,DELAY(SENSOR),PRES,T(CTD),SAL,OXYGEN,RAWTEMP,T(OPTODE),TCPHASE,TURBIDITY,TURBIDITY_GAIN,FLUOR,BETA,CDOM,CSC,CHECK
1351298244,8893,1023.1099853515625000,6.9509000778198240,35.0956001281738300,221.7153930664062500,660.3546752929688000,6.9394512176513670,37.2180404663085940,16,3,51,84,65,15672,36269
1351298357,8892,1012.1900024414062000,7.1182999610900880,35.1016998291015600,217.4521026611328000,655.5626220703125000,7.0978469848632810,37.3650817871093750,16,3,50,86,64,15671,51206
1351298470,8892,1001.3400268554688000,7.2828998565673830,35.1048011779785160,213.6058959960937500,650.6306762695312000,7.2605900764465330,37.4911994934082000,16,3,50,86,64,15668,18371
1351298595,8892,989.7700195312500000,7.4043998718261720,35.1097984313964840,208.8851928710937500,646.7390136718750000,7.3888092041015625,37.6919288635253900,16,3,50,84,64,15669,42837
1351298708,8892,979.4899902343750000,7.6033000946044920,35.1180000305175800,204.2519073486328000,640.0239257812500000,7.6096549034118650,37.8416709899902340,15,3,50,85,63,15668,24747
1351298835,8893,968.1900024414062000,7.7424998283386230,35.1225013732910160,199.1714019775390600,636.4188232421875000,7.7280077934265140,38.0817604064941400,16,3,51,86,64,15668,50752
1351298962,8893,957.3499755859375000,8.0069999694824220,35.1353988647460940,193.8477020263672000,628.4191284179688000,7.9901280403137210,38.2670211791992200,16,3,50,86,64,15668,49996
1351299089,8892,946.7100219726562000,8.1288003921508790,35.1405982971191400,189.2525024414062500,624.6652221679688000,8.1128902435302730,38.4915199279785160,15,3,50,87,64,15667,15170
1351299228,8893,935.4600219726562000,8.3273000717163090,35.1529006958007800,185.9194030761718800,618.7246704101562000,8.3068513870239260,38.6013488769531250,16,3,50,86,64,15668,38726
1351299367,8892,924.5700073242188000,8.4419002532958980,35.1595001220703100,183.2817993164062500,614.8427734375000000,8.4333925247192380,38.7063713073730500,15,3,50,86,64,15668,16821
1351299504,8892,912.1900024414062000,8.7047004699707030,35.1834983825683600,180.4788055419922000,606.5043945312500000,8.7046852111816400,38.7454795837402340,16,3,50,84,64,15668,57411
1351299619,8893,900.2800292968750000,8.9072999954223630,35.2109985351562500,183.6027984619140600,600.3889770507812000,8.9031963348388670,38.4309806823730500,15,3,50,84,63,15668,22748
1351299729,8893,889.3099975585938000,9.0670003890991210,35.2191009521484400,180.9055023193359400,595.6427001953125000,9.0570068359375000,38.5275497436523440,15,3,50,85,64,15668,15230
1351299862,8892,878.0900268554688000,9.1866998672485350,35.2223014831543000,176.9286041259765600,591.0695800781250000,9.2049903869628900,38.7176513671875000,16,3,50,84,64,15666,63521
1351300001,8893,867.1900024414062000,9.4885997772216800,35.2420005798339840,172.1652984619140600,582.6213989257812000,9.4778366088867190,38.9037818908691400,16,3,50,84,62,15668,28965
1351300146,8893,854.5399780273438000,9.6936998367309570,35.2613983154296900,169.7420959472656200,574.4345092773438000,9.7415895462036130,38.9347000122070300,16,3,51,84,64,15667,24928
1351300249,8892,844.2899780273438000,9.9650001525878900,35.2877006530761700,169.1103973388672000,567.7368774414062000,9.9568977355957030,38.8667411804199200,15,3,50,84,62,15668,45028
1351300364,8893,833.1199951171875000,10.1605997085571290,35.3087997436523440,168.5682983398437500,561.5181274414062000,10.1564397811889650,38.7995796203613300,15,3,50,83,64,15669,6386
1351300479,8892,822.1199951171875000,10.3836002349853520,35.3339004516601560,168.0955047607422000,554.1043701171875000,10.3938798904418950,38.7096405029296900,16,3,50,84,62,15669,30080
1351300594,8892,811.2000122070312000,10.5556001663208000,35.3466987609863300,166.2416992187500000,549.2489013671875000,10.5491104125976560,38.7619285583496100,16,3,50,86,62,15664,16654
1351300707,8892,800.5200195312500000,10.6689996719360350,35.3573989868164060,163.9006042480468800,545.3043823242188000,10.6750698089599610,38.8688201904296900,16,3,51,85,62,15664,52654
1351300834,8893,788.4899902343750000,10.9329996109008790,35.3832015991210940,161.8930969238281200,536.9597778320312000,10.9411096572875980,38.8792381286621100,16,3,50,86,62,15660,48303
1351300949,8892,777.5300292968750000,11.2298002243042000,35.4193992614746100,160.7673950195312500,527.8718872070312000,11.2301797866821290,38.8136596679687500,16,3,50,86,61,15660,4820
1351301076,8893,765.6599731445312000,11.4623003005981450,35.4530982971191400,162.8217010498047000,520.5404052734375000,11.4628896713256840,38.5396881103515600,15,3,50,86,62,15662,58719
1351301191,8892,754.6300048828125000,11.6006002426147460,35.4702987670898440,164.4526062011718800,516.1320800781250000,11.6026096343994140,38.3469314575195300,16,3,50,86,62,15662,61292
1351301306,8892,743.7800292968750000,11.8521995544433600,35.5061988830566400,163.6464996337890600,506.6235961914062500,11.9034700393676760,38.2515907287597660,16,3,50,84,60,15664,52849
1351301421,8893,733.3800048828125000,12.1665000915527340,35.5495986938476560,166.8721923828125000,498.0813903808594000,12.1731700897216800,37.8773002624511700,16,3,50,85,62,15664,49641
1351301548,8893,721.9799804687500000,12.5074996948242190,35.5974006652832000,169.3934020996093800,487.2735900878906000,12.5136404037475590,37.5219306945800800,15,3,50,86,60,15664,64193
1351301675,8891,710.8800048828125000,12.7779998779296880,35.6421012878418000,177.9319000244140600,478.7952880859375000,12.7801504135131840,36.7928504943847660,16,3,50,84,62,15664,42481
1351301802,8892,700.0499877929688000,13.1056003570556640,35.6935997009277340,185.4143066406250000,468.5480957031250000,13.1016197204589840,36.1352386474609400,16,3,50,82,60,15663,24427
1351301929,8894,689.6199951171875000,13.3065996170043950,35.7265014648437500,191.8668975830078000,461.2871093750000000,13.3289899826049800,35.6120910644531250,15,3,50,82,60,15663,33831
1351302068,8892,678.3900146484375000,13.5789003372192380,35.7650985717773440,189.4234924316406200,453.0783996582031000,13.5856304168701170,35.6389617919921900,16,3,50,84,60,15666,25564
1351302207,8892,667.2700195312500000,13.7784004211425780,35.7985000610351560,190.7534942626953000,446.8062133789062500,13.7814502716064450,35.4587593078613300,15,3,50,82,60,15668,65339
1351302367,8894,653.1300048828125000,14.0883998870849610,35.8450012207031250,192.0455017089843800,436.6557006835937500,14.0978698730468750,35.2235298156738300,16,3,49,82,58,15668,19856
1351302470,8892,642.1300048828125000,14.3084001541137700,35.8787002563476560,190.5597991943359400,429.3528137207031000,14.3251495361328120,35.2049293518066400,16,3,50,84,60,15666,58593
1351302592,8894,629.7299804687500000,14.5865001678466800,35.9235000610351560,193.5964965820312500,420.5412902832031000,14.5989999771118160,34.8843383789062500,14,3,50,83,59,15666,11633
1351302714,8893,619.4799804687500000,14.7084999084472660,35.9468002319335940,197.1564025878906200,416.7073974609375000,14.7180299758911130,34.6111106872558600,16,3,50,82,58,15666,32498
1351302848,8894,608.4299926757812000,14.9034004211425780,35.9794998168945300,198.6096038818359400,410.3013916015625000,14.9167404174804690,34.4294815063476560,16,3,50,84,60,15663,15681
1351302963,8893,597.3900146484375000,15.0204000473022460,35.9996986389160160,199.6195068359375000,406.6395874023437500,15.0302295684814450,34.3155708312988300,15,3,49,84,58,15664,9392
1351303078,8893,586.1699829101562000,15.3044004440307620,36.0488014221191400,202.1152038574218800,397.5678100585937500,15.3111295700073240,34.0359992980957000,16,3,50,84,58,15662,35497
1351303191,8892,575.2100219726562000,15.5434999465942380,36.0886993408203100,201.5783996582031200,389.1896057128906000,15.5702104568481450,33.9447288513183600,15,3,49,84,57,15662,25886
1351303306,8892,564.0700073242188000,15.7679004669189450,36.1305999755859400,205.7140045166015600,382.1003112792969000,15.7891998291015620,33.6048698425293000,15,3,49,83,56,15662,54276
1351303421,8892,552.9600219726562000,16.0333995819091800,36.1772003173828100,213.0460052490234400,373.9169006347656000,16.0417194366455080,33.0814514160156250,15,3,50,84,56,15660,40103
1351303536,8892,541.7999877929688000,16.2213001251220700,36.2126007080078100,216.0180053710937500,367.8189086914062500,16.2297096252441400,32.8350982666015600,15,3,48,82,56,15660,39675
1351303651,8893,530.8699951171875000,16.4239997863769530,36.2500000000000000,218.1652069091797000,360.9078063964844000,16.4426002502441400,32.6239814758300800,15,3,50,82,56,15660,28189
1351303766,8892,519.9899902343750000,16.5753002166748050,36.2803001403808600,221.2792053222656200,356.0602111816406000,16.5918292999267580,32.3938903808593750,15,3,50,82,56,15660,40775
1351303879,8893,509.2999877929687500,16.6592006683349600,36.2919998168945300,225.1878967285156200,353.4808044433594000,16.6711997985839840,32.1585617065429700,15,3,50,82,56,15658,52074
1351303994,8894,498.5499877929687500,16.7597007751464840,36.3092002868652340,227.0858001708984400,350.3084106445312500,16.7687797546386720,32.0190391540527340,16,3,49,83,56,15658,9983
1351304121,8894,486.8999938964844000,16.9251995086669920,36.3398017883300800,227.5708007812500000,344.6435852050781000,16.9429492950439450,31.9169692993164060,16,3,48,82,54,15657,52823
1351304236,8894,476.5499877929687500,17.0802001953125000,36.3751983642578100,226.9523925781250000,339.7272033691406000,17.0940208435058600,31.8799991607666000,15,3,49,84,56,15658,21844
1351304363,8892,464.9599914550781000,17.1681003570556640,36.3898010253906250,228.7633972167968800,336.9923095703125000,17.1780300140380860,31.7528095245361330,16,3,49,83,54,15661,29881
1351304478,8892,454.5700073242187500,17.3495998382568360,36.4287986755371100,230.1315002441406200,330.6824035644531000,17.3717708587646500,31.5993404388427730,16,3,50,84,54,15658,32873
1351304605,8892,443.1600036621094000,17.4729995727539060,36.4642982482910160,235.1687927246093800,327.0996093750000000,17.4817199707031250,31.3078098297119140,16,3,50,84,54,15660,24235
1351304720,8893,432.6400146484375000,17.5428009033203120,36.4761009216308600,236.0444030761718800,324.7300109863281000,17.5544204711914060,31.2341804504394530,15,3,50,86,54,15658,22081
1351304847,8893,421.0499877929687500,17.5876007080078120,36.4846992492675800,236.3318939208984400,323.1376953125000000,17.6032695770263670,31.1991691589355470,16,3,50,84,54,15658,55870
1351304962,8893,410.7500000000000000,17.6464996337890620,36.4902000427246100,236.3043060302734400,321.4017028808594000,17.6565208435058600,31.1771106719970700,16,3,50,84,54,15658,20701
1351305089,8893,399.7099914550781000,17.6735992431640620,36.4921989440918000,236.1717071533203000,320.3258972167969000,17.6895103454589840,31.1688308715820300,16,3,50,84,54,15660,28727
1351305154,8891,394.1900024414062500,17.7448005676269530,36.5060005187988300,236.3464965820312500,318.1706848144531000,17.7555999755859380,31.1317291259765620,15,3,50,84,54,15658,13327
1351305221,8893,388.6900024414062500,17.7807006835937500,36.5107002258300800,236.3999938964843800,316.9574890136719000,17.7927894592285160,31.1130790710449220,16,3,50,83,54,15657,36885
1351305298,8893,382.6000061035156000,17.8120994567871100,36.5172996520996100,236.4423980712890600,315.8077087402344000,17.8280391693115230,31.0953502655029300,15,3,50,84,54,15655,53209
1351305396,8892,374.5000000000000000,17.8204994201660160,36.5153007507324200,236.2814941406250000,315.6101989746094000,17.8341007232666000,31.1005191802978500,15,3,48,84,54,15655,11260
1351305485,8893,366.2399902343750000,17.8950996398925780,36.5279998779296900,235.7480926513672000,313.3294982910156000,17.9040107727050780,31.0949802398681640,16,3,50,84,53,15656,46170
1351305552,8893,359.7000122070312500,17.9139003753662100,36.5327987670898440,235.9772033691406200,312.5064086914062500,17.9292392730712900,31.0731296539306640,15,3,50,84,54,15657,57336
1351305617,8894,353.2399902343750000,17.9719009399414060,36.5441017150878900,236.1022033691406200,310.6744995117187500,17.9853706359863280,31.0428104400634770,15,3,50,85,52,15654,42079
1351305684,8892,346.4800109863281000,18.0041999816894530,36.5461997985839840,235.8591003417968800,309.7421875000000000,18.0139408111572270,31.0421390533447270,16,3,50,83,54,15656,2181
1351305749,8892,339.7900085449219000,18.0084991455078120,36.5405006408691400,235.8952941894531200,309.6350097656250000,18.0172290802001950,31.0386695861816400,15,3,50,84,54,15656,11993
1351305847,8893,330.0199890136719000,17.9908008575439450,36.5298004150390600,236.0305938720703000,310.1026916503906000,18.0028991699218750,31.0386009216308600,16,3,50,84,54,15656,46793
1351305930,8893,322.4599914550781000,18.0883007049560550,36.5484008789062500,234.9002990722656200,306.8833007812500000,18.1015396118164060,31.0493106842041000,16,3,50,86,54,15656,49375
1351305997,8891,316.6000061035156000,18.1168994903564450,36.5517997741699200,234.2339935302734400,305.9757080078125000,18.1293392181396500,31.0687408447265620,15,3,50,86,54,15654,1114
1351306074,8892,309.7699890136719000,18.1693992614746100,36.5612983703613300,233.5520935058593800,304.1665039062500000,18.1847591400146500,31.0769996643066400,15,3,48,84,54,15654,26927
1351306141,8892,303.8200073242187500,18.2017993927001950,36.5648002624511700,233.0780029296875000,303.3062133789062500,18.2111091613769530,31.0881690979003900,16,3,50,84,53,15656,49232
1351306206,8893,298.0299987792969000,18.2590007781982420,36.5713005065918000,232.1372985839843800,301.5089111328125000,18.2661495208740230,31.1094207763671880,16,3,50,86,54,15654,6414
1351306273,8892,291.9700012207031000,18.2665996551513670,36.5709991455078100,231.4996948242187500,301.2001037597656000,18.2756099700927730,31.1357994079589840,16,3,50,86,54,15653,53607
1351306338,8892,286.0599975585937500,18.2229003906250000,36.5483016967773440,231.6791992187500000,302.5556945800781000,18.2340908050537100,31.1452407836914060,16,3,50,84,52,15654,47791
1351306405,8892,280.0100097656250000,18.2175006866455080,36.5410995483398440,232.7252044677734400,302.7785949707031000,18.2272605895996100,31.0981407165527340,16,3,50,84,53,15655,1195
1351306470,8894,274.1000061035156000,18.2621002197265620,36.5463981628418000,234.3802032470703000,301.1314086914062500,18.2777099609375000,30.9971294403076170,16,3,50,84,54,15656,47670
1351306537,8892,268.1400146484375000,18.3155994415283200,36.5545997619628900,234.4929962158203000,299.4602966308594000,18.3288803100585940,30.9695301055908200,16,3,50,85,53,15655,39342
1351306602,8892,262.4500122070312500,18.3563995361328120,36.5601997375488300,234.2619934082031200,298.3273925781250000,18.3635692596435550,30.9655609130859380,16,3,50,84,53,15658,29528
1351306669,8892,256.7799987792969000,18.3827991485595700,36.5587997436523440,234.5635986328125000,297.2496032714844000,18.3965702056884770,30.9368705749511720,16,3,50,83,54,15658,47141
1351306746,8892,250.4700012207031200,18.4244003295898440,36.5602989196777340,235.1446990966797000,296.0469055175781000,18.4333896636962900,30.8936405181884770,16,3,50,84,52,15656,18884
1351306825,8893,244.1600036621093800,18.4290008544921880,36.5471000671386700,236.4452972412109400,295.9331054687500000,18.4368705749511720,30.8309593200683600,16,3,49,85,52,15652,60400
1351306902,8892,238.1799926757812500,18.3988990783691400,36.5135993957519500,239.4051971435547000,296.7538146972656000,18.4117507934570300,30.7039299011230470,15,3,50,86,52,15654,11542
1351307000,8893,230.2899932861328000,18.5214996337890620,36.5372009277343750,239.6589050292968800,292.8640136718750000,18.5308208465576170,30.6410408020019530,16,3,50,84,52,15656,6191
1351307086,8892,222.3699951171875000,18.6735992431640620,36.5517997741699200,236.6407012939453000,287.9370117187500000,18.6816005706787100,30.7162895202636720,15,3,50,83,53,15652,21835
1351307153,8894,215.8600006103515600,18.7273998260498050,36.5544013977050800,235.0254058837890600,286.1357116699219000,18.7367191314697270,30.7686100006103500,16,3,50,84,54,15652,59660
1351307218,8892,209.3999938964843800,18.7959003448486330,36.5611991882324200,234.3836975097656200,283.4649047851562500,18.8184299468994140,30.7633800506591800,16,3,50,84,54,15652,536
1351307285,8893,202.5099945068359400,18.8628997802734380,36.5588989257812500,235.4694976806640600,281.7296142578125000,18.8715190887451170,30.6894893646240230,15,3,50,85,52,15650,3317
1351307350,8891,195.8000030517578000,18.9617004394531250,36.5564994812011700,238.5948944091797000,278.3905029296875000,18.9736499786376950,30.5003395080566400,15,3,50,83,52,15650,56080
1351307440,8893,187.0700073242187500,19.0869007110595700,36.5658988952636700,241.2332000732422000,274.6423950195312500,19.0882701873779300,30.3306198120117200,16,3,50,85,52,15653,60516
1351307505,8892,181.4100036621093800,19.1112995147705080,36.5648994445800800,242.0917968750000000,273.7077026367187500,19.1168498992919920,30.2793407440185550,15,3,48,83,53,15651,6305
1351307598,8893,174.4700012207031200,19.1800994873046880,36.5607986450195300,244.5180969238281200,271.3080139160156000,19.1902294158935550,30.1390304565429700,16,3,50,85,52,15649,48328
1351307663,8893,170.6300048828125000,19.2294998168945300,36.5662002563476560,244.6705017089843800,269.7760925292969000,19.2370700836181640,30.1124591827392580,16,3,50,86,52,15650,60306
1351307756,8894,166.2599945068359400,19.2556991577148440,36.5680999755859400,244.7317962646484400,268.9395141601562500,19.2626399993896500,30.0988407135009770,15,3,50,90,51,15651,39512
1351307821,8893,164.4100036621093800,19.2628002166748050,36.5666999816894500,244.7153015136718800,268.6588134765625000,19.2712306976318360,30.0959796905517580,15,3,52,87,52,15650,14323
1351307912,8892,161.5500030517578000,19.2882003784179700,36.5690994262695300,244.4107971191406200,267.8728027343750000,19.2952594757080080,30.0995292663574220,16,3,51,87,52,15649,57556
1351307977,8893,158.5899963378906200,19.3115005493164060,36.5695991516113300,244.3759002685547000,267.1003112792969000,19.3188705444335940,30.0910892486572270,16,3,52,88,52,15645,50215
1351308044,8892,155.4499969482422000,19.3234996795654300,36.5708999633789060,244.4494934082031200,266.6040954589844000,19.3340396881103500,30.0814094543457030,16,3,52,87,52,15644,14552
1351308109,8893,152.3999938964843800,19.3743991851806640,36.5732994079589840,244.9877929687500000,265.0875854492187500,19.3803997039794920,30.0377292633056640,16,3,54,90,52,15644,53302
1351308176,8893,149.3200073242187500,19.4179000854492200,36.5773010253906250,244.5713958740234400,263.5837097167969000,19.4263706207275400,30.0370292663574220,15,3,56,90,52,15638,11219
1351308241,8891,146.3099975585937500,19.4458007812500000,36.5788993835449200,244.4250946044922000,262.7515869140625000,19.4517993927001950,30.0328807830810550,16,3,58,88,52,15640,1285
1351308308,8894,143.0700073242187500,19.4778003692626950,36.5787010192871100,243.9833068847656200,261.6675109863281000,19.4849395751953120,30.0387897491455080,15,3,60,91,52,15636,54120
1351308373,8892,139.9799957275390600,19.5097999572753900,36.5815010070800800,244.1925964355468800,260.5018920898437500,19.5205707550048830,30.0142307281494140,15,3,60,89,51,15636,25928
1351308440,8893,136.7700042724609400,19.5823993682861330,36.5876998901367200,243.6082000732422000,258.2329101562500000,19.5899105072021500,30.0112495422363280,15,3,62,90,52,15634,6547
1351308505,8893,133.6499938964843800,19.6201000213623050,36.5905990600585940,243.6846008300781200,257.0311889648437500,19.6266403198242200,29.9924201965332030,15,3,62,90,52,15633,44924
1351308572,8892,130.4600067138672000,19.6905994415283200,36.5970001220703100,244.0307006835937500,254.6717987060547000,19.6987400054931640,29.9467792510986330,16,3,60,88,52,15632,20500
1351308637,8891,127.3399963378906200,19.7387008666992200,36.5975990295410160,244.5178070068359400,253.1681060791015600,19.7446899414062500,29.9057693481445300,15,3,66,91,52,15628,55149
1351308704,8894,124.1699981689453100,19.7812004089355470,36.5998001098632800,244.6304931640625000,251.8778991699218800,19.7841205596923830,29.8842506408691400,15,3,69,90,52,15626,13889
1351308769,8892,120.9800033569336000,19.8104000091552730,36.6043014526367200,244.8325042724609400,250.8854064941406200,19.8144493103027340,29.8625793457031250,16,3,72,92,51,15622,2472
1351308836,8893,117.5699996948242200,19.8365993499755860,36.6066017150878900,244.6912994384765600,249.8332061767578000,19.8465995788574220,29.8554992675781250,15,3,74,94,52,15620,46288
1351308901,8893,114.0999984741211000,19.8813991546630860,36.6111984252929700,244.7489013671875000,248.5104064941406200,19.8870105743408200,29.8358497619628900,15,3,74,96,53,15620,25799
1351308968,8894,110.6399993896484400,19.9095993041992200,36.6175994873046900,244.3321075439453000,247.4580993652343800,19.9191703796386720,29.8412208557128900,16,3,75,92,52,15618,51412
1351309033,8893,107.3399963378906200,19.9734992980957030,36.6194992065429700,244.0903015136718800,245.5086059570312500,19.9787292480468750,29.8269996643066400,15,3,80,95,53,15614,3416
1351309100,8894,104.3300018310546900,20.0666999816894530,36.6212997436523440,244.2115936279297000,242.6903076171875000,20.0648403167724600,29.7857704162597660,16,3,86,97,52,15607,33656
1351309165,8893,101.8899993896484400,20.1061992645263670,36.6240997314453100,244.7436065673828000,241.5045013427734400,20.1010704040527340,29.7471408843994140,16,3,86,96,52,15608,47453
1351309258,8895,98.3600006103515600,20.2516994476318360,36.6254005432128900,244.7852935791015600,235.9638061523437500,20.2703399658203120,29.6750202178955080,15,3,94,102,52,15596,19764
1351309323,8897,95.5100021362304700,20.4587001800537100,36.6324005126953100,245.5157012939453000,229.7104949951172000,20.4613704681396500,29.5637798309326170,16,3,100,99,52,15592,59690
1351309390,8898,93.0599975585937500,20.6923007965087900,36.6426010131835940,246.4779052734375000,222.0904998779297000,20.6941509246826170,29.4255504608154300,16,3,104,104,52,15582,4771
1351309455,8898,91.3499984741211000,20.8136005401611330,36.6501998901367200,246.9671020507812500,217.3592987060547000,20.8386802673339840,29.3447895050048830,15,3,108,101,53,15576,10569
1351309549,8899,88.8199996948242200,21.1544990539550780,36.6626014709472660,246.5453033447265600,207.1663970947265600,21.1500797271728500,29.2362403869628900,15,3,118,105,52,15555,48815
1351309614,8898,86.5000000000000000,21.3204994201660160,36.6589012145996100,245.5821990966797000,201.8972930908203000,21.3110809326171880,29.2126007080078120,16,3,126,104,53,15546,6063
1351309707,8897,82.3700027465820300,21.6005992889404300,36.6731986999511700,244.3607025146484400,191.6591949462890600,21.6239490509033200,29.1389293670654300,15,3,130,104,52,15534,48418
1351309772,8899,78.4599990844726600,21.8880996704101560,36.6710014343261700,246.8715057373047000,183.3726043701172000,21.8772697448730470,28.9274806976318360,16,3,138,108,52,15510,4495
1351309839,8900,74.8399963378906200,22.0631008148193360,36.6547012329101560,251.7436981201172000,177.5572967529297000,22.0550804138183600,28.6480197906494140,16,3,128,105,50,15513,22568
1351309904,8899,71.9199981689453100,22.3759002685546880,36.6361007690429700,256.3031921386719000,168.4253997802734400,22.3343906402587900,28.3469696044921880,15,3,108,106,50,15530,24439
1351309971,8899,69.6800003051757800,22.6529998779296880,36.6175994873046900,258.9205017089844000,159.5726928710937500,22.6052894592285160,28.1331806182861330,15,3,108,106,50,15524,19743
1351310036,8900,68.0699996948242200,22.9370994567871100,36.5844993591308600,260.6986999511719000,151.1826019287109400,22.8621692657470700,27.9604797363281250,15,3,108,106,50,15524,62525
1351310142,8899,65.9899978637695300,23.1786003112792970,36.6018981933593750,263.2174987792969000,141.3397979736328000,23.1637001037597660,27.7423706054687500,16,3,102,104,50,15523,9013
1351310207,8900,63.9500007629394500,23.4158992767334000,36.5909996032714840,258.8375854492187500,133.6499023437500000,23.3994293212890620,27.8260993957519530,16,3,107,110,50,15515,11806
1351310300,8897,62.2299995422363300,23.8216991424560550,36.4878005981445300,254.6208038330078000,120.2590026855468800,23.8102798461914060,27.8382091522216800,15,3,92,108,48,15508,6533